Location: Unspecified
(41.1637°N, 24.2901°E)
Time: 17:12:13
(UTC+01:00)

ISS - Pass Details

Date: 18 January 2020
Orbit: 415 x 421 km, 51.6° (Epoch: 18 January)

Event Time Altitude Azimuth Distance (km) Brightness Sun altitude
Rises 18:21:53 0° 208° (SSW) 2,349 0.6 -22.3°
Reaches altitude 10° 18:24:08 10° 196° (SSW) 1,489 -0.7 -22.7°
Enters shadow 18:25:02 16° 187° (S) 1,186 -1.3 -22.9°
